Flag for Canada Weather past 2 weeks in Kingston, Ontario, Canada

Now
14 °F

Low level haze.


Feels Like: -3 °F
Forecast: -1 / 28 °F
Wind: 17 mph from North

Location: Kingston

Current Time: Jan 30, 2015 at 3:13:28 PM

Latest Report: Jan 30, 2015 at 2:00 PM


Visibility: 15 mi

Pressure: 30.12 "Hg

Humidity: 57%

Dew point: 1 °F

Location of KingstonLocation

Historic Weather in Kingston — Graph

°F

Kingston temperature yesterday

Maximum temperature yesterday: 30 °F (at 3:00 PM)
Minimum temperature yesterday: 19 °F (at 6:00 AM)
Average temperature yesterday: 26 °F

Past Weeks' High & Low Weather Summary

 TemperatureHumidityPressure
High36 °F (Jan 18, 12:00 PM)100% (Jan 18, 9:00 PM)30.41 "Hg (Jan 18, 9:00 PM)
Low-6 °F (Jan 17, 6:00 AM)23% (Jan 28, 2:00 PM)29.41 "Hg (Jan 24, 10:00 PM)
Average18 °F69%30.01 "Hg
* Reported Jan 15 2:00 PM — Jan 30 2:00 PM, Kingston, Weather by CustomWeather, © 2014

Note: Actual official high and low records may vary slightly from our data, if they occured in-between our weather recording intervals... More about our weather records

Advertising

Kingston weather history for previous 24 hours

 ConditionsComfort  
Time TempWeatherWind HumidityBarometerVisibility
2:00 PM
Jan 30
14 °FLow level haze.17 mph57%30.12 "Hg15 mi
1:00 PM12 °FPassing clouds.15 mph62%30.11 "Hg15 mi
12:00 PM14 °FBroken clouds.15 mph62%30.10 "Hg15 mi
11:00 AM12 °FPartly sunny.21 mph67%30.09 "Hg15 mi
10:00 AM14 °FPartly sunny.15 mph67%30.07 "Hg15 mi
9:00 AM16 °FOvercast.26 mph67%30.01 "Hg15 mi
8:00 AM19 °FMore clouds than sun.20 mph73%29.98 "Hg15 mi
7:00 AM23 °FLight snow. Mostly cloudy.13 mph74%29.93 "Hg15 mi
6:00 AM23 °FLight snow. Overcast.10 mph80%29.90 "Hg12 mi
11:00 PM
Jan 29
30 °FSnow. Low clouds.20 mph93%29.76 "Hg1 mi
10:00 PM30 °FLight snow. Overcast.20 mph93%29.77 "Hg2 mi
9:00 PM30 °FLight snow. Low clouds.20 mph93%29.77 "Hg1 mi
8:00 PM28 °FLight snow. Low clouds.24 mph100%29.78 "Hg2 mi
7:50 PM28 °FLight snow. Low clouds.24 mph100%29.79 "Hg2 mi
7:00 PM28 °FLight snow. Low clouds.23 mph100%29.80 "Hg1 mi
6:00 PM28 °FLight snow. Mostly cloudy.21 mph93%29.81 "Hg1 mi
5:00 PM28 °FSnow flurries. Overcast.25 mph80%29.83 "Hg1 mi
4:00 PM30 °FSnow flurries. More clouds than sun.31 mph69%29.83 "Hg4 mi
3:49 PM28 °FLight snow. Overcast.32 mph80%29.83 "Hg1 mi
3:00 PM30 °FMostly cloudy.22 mph59%29.85 "Hg15 mi
Weather by CustomWeather, © 2014

See weather overviewHow to use our weather pages